Weather in Novoselickoe

Russia / Stavropol Krai     44°45′04″N   43°26′00″E
temp.,
°C
wind,
m/s
gust,
m/s
humid.,
%
clouds,
%
prec.,
mm/h
press.,
hPa
HPBL,
m
27 november, sat
sat2700:00+3ese369367 0.0 1022258
03:00+3se468591 0.0 1021467
06:00+1se36894 0.0 1021222
09:00+2se48805 0.0 1020244
12:00+7se576888 0.0 1019572
15:00+8se4667100 0.0 1018579
18:00+6se3583100 0.0 1019154
21:00+6sse358898 0.4 1019148
28 november, sun
sun2800:00+5s3784100 0.1 1018161
03:00+5sse3578100 0.1 101799
06:00+5sse3473100 0.0 101654
09:00+7se3665100 0.0 1016160
12:00+11se4551100 0.0 1015328
15:00+11e3557100 0.0 1014406
18:00+8e3576100 0.0 1015118
21:00+7ese3584100 0.0 1016121
29 november, mon
mon2900:00+6se3591100 0.0 1015107
03:00+6sse239199 0.0 101652
06:00+6e2291100 0.0 101622
09:00+7sse248876 0.0 1017133
12:00+12sse345896 0.0 1015332
15:00+13se465381 0.0 1014323
18:00+9se4871100 0.0 1013130
21:00+8se411735 0.0 1011187
30 november, tue
tue3000:00+7se49752 0.0 1009144
03:00+7sse3575100 0.0 100685
06:00+8sse1268100 0.0 100414
09:00+13wnw81673100 0.0 1007908
12:00+14w61559100 0.1 1005702
15:00+13s457692 0.3 1006144
18:00+11s378358 0.3 1005141
21:00+9ese41095100 0.6 1001245
1 december, wed
wed100:00+10sse71685100 0.3 997478
03:00+10nw3592100 4.4 998119
06:00+9sw41185100 1.2 1000357
09:00+5wnw1625683 1.2 1005878
12:00+7wnw111857100 0.0 1007970
15:00+6nw9155498 0.0 1008864
18:00+5wnw61362100 0.0 1010877
21:00+4w2466100 0.0 1014132